Location: Ecklingerode
(51.5036°N, 10.3122°E)
Time: 13:29:33
(UTC+00:00)

CSL-04 Rocket - Pass Details

Date: 29 October 2020
Orbit: 805 x 861 km, 98.9° (Epoch: 28 November)

Event Time Altitude Azimuth Distance (km) Brightness Sun altitude
Rises 18:34:21 0° 176° (S) 3,424 6.7 -25.0°
Reaches altitude 10° 18:36:47 10° 181° (S) 2,489 6.0 -25.4°
Maximum altitude 18:42:12 56° 259° (WSW) 1,014 4.3 -26.2°
Drops below altitude 10° 18:47:38 10° 337° (NNW) 2,481 6.5 -27.0°
Sets 18:50:03 0° 342° (NNW) 3,413 7.3 -27.4°
